User: anonymous   Login
Location: Beang
(6.6177°N, 10.9863°W)
Time: 14:54:33
(UTC+00:00)
Language:

OAO 1 Rocket - Orbit

View from above orbital plane
View from above orbital plane
View from above satellite
View from above satellite

Ground track
Ground track

The orbit data is extracted from the following two-line orbital elements,

1  2144U 66031B   20224.59794840 +.00000043 +00000-0 +18559-4 0  9992
2  2144 035.0431 304.2358 0009065 300.2040 059.7752 14.42762589854058
Epoch (UTC): 11 August 2020 14:21:02
Eccentricity: 0.0009065
inclination: 35.0431°
perigee height: 743 km
apogee height: 756 km
right ascension of ascending node: 304.2358°
argument of perigee: 300.2040°
revolutions per day: 14.42762589
mean anomaly at epoch: 59.7752°
orbit number at epoch: 85405

The dashed part of the orbit path shows where the satellite is in the earth's shadow,  

DLR